User: anonymous   Login
Location: Unspecified
(0.0000°N, 0.0000°E)
Time: 09:30:26
(UTC+00:00)
Language:

AAUSAT CUBESAT 2 - Orbit

View from above orbital plane
View from above orbital plane
View from above satellite
View from above satellite

Ground track
Ground track

The orbit data is extracted from the following two-line orbital elements,

1 32788U 08021F   17327.63886364  .00001104  00000-0  10830-3 0  9994
2 32788  97.5433 357.4965 0010845 323.0770  36.9703 14.94119245519485
Epoch (UTC): 23 November 2017 15:19:57
Eccentricity: 0.0010845
inclination: 97.5433°
perigee height: 577 km
apogee height: 592 km
right ascension of ascending node: 357.4965°
argument of perigee: 323.0770°
revolutions per day: 14.94119245
mean anomaly at epoch: 36.9703°
orbit number at epoch: 51948

The dashed part of the orbit path shows where the satellite is in the earth's shadow,  

DLR